[[{"header":{"parameterUnit":"m.s-1","parameterCategory":1,"la1":30.2991,"la2":30.254,"lo1":-89.0895,"lo2":-89.0444,"dy":0.0017,"dx":0.0017,"nx":28,"ny":28,"refTime":"2023-08-22T09:00:00:Z","depth":0,"parameterNumber":2,"parameterNumberName":"U-component_of_WINDS"},"data":[0,0,0,0,0,0,0,0,0,0,0,0,0,0,0,0,0,0,0,0,0,0,0,0,0,0,0,0,0,0,0,0,0,0,0,0,0,0,0,0,0,0,0,0,0,0,0,0,0,0,0,0,0,0,0,0,0,0,-2.7843,-2.7843,0,-2.7789,-2.7788,-2.7787,-2.7627,-2.7624,-2.762,-2.7617,-2.7565,-2.7567,-2.7569,0,0,0,0,0,0,0,0,0,0,0,0,0,-2.7813,-2.7814,-2.7843,-2.7843,-2.7842,-2.7789,-2.7788,-2.7787,-2.7628,-2.7623,-2.7619,-2.7615,-2.7565,-2.7567,-2.7569,0,0,0,0,0,0,0,0,0,0,0,0,0,-2.7799,-2.7815,-2.7843,-2.7756,-2.7747,-2.7789,-2.7788,-2.7787,-2.7629,-2.7623,-2.7618,-2.7613,-2.7564,-2.7567,-2.757,-2.7693,0,0,-2.7578,-2.758,0,0,0,0,0,0,0,0,-2.78,-2.7801,-2.7769,-2.7762,-2.7752,-2.7709,-2.7758,-2.7756,-2.763,-2.7674,-2.7617,-2.7611,-2.7618,-2.7616,-2.7617,-2.7691,-2.7688,-2.7579,-2.758,-2.7582,-2.7583,0,0,0,0,0,0,0,-2.7802,-2.7802,-2.7822,-2.7769,-2.7759,-2.772,-2.7713,-2.7757,-2.7676,-2.767,-2.7658,-2.7653,-2.7612,-2.7615,-2.7615,-2.7688,-2.7579,-2.7581,-2.7583,-2.7584,-2.7859,-2.7864,0,0,0,0,0,0,-2.7814,-2.7804,-2.7823,-2.782,-2.7764,-2.7725,-2.7717,-2.7729,-2.7675,-2.7662,-2.7658,-2.7646,-2.7613,-2.7612,-2.7613,-2.7752,-2.7582,-2.7584,-2.7586,-2.7853,-2.786,-2.7866,0,0,0,0,0,0,-2.7814,-2.7818,-2.7826,-2.7809,-2.7807,-2.7731,-2.7746,-2.773,-2.7733,-2.7666,-2.7652,-2.7675,-2.7609,-2.7609,-2.7674,-2.7748,-2.7586,-2.7588,-2.7847,-2.7855,-2.7863,-2.8034,0,0,0,0,0,0,-2.7814,-2.7819,-2.7864,-2.7811,-2.7808,-2.7887,-2.7751,-2.7733,-2.7738,-2.7722,-2.7679,-2.7667,-2.7604,-2.767,-2.7677,-2.7749,-2.7591,-2.784,-2.785,-2.786,-2.8021,-2.8047,-2.8069,0,0,0,0,0,-2.7814,-2.7915,-2.7867,-2.787,-2.7863,-2.7891,-2.789,-2.7815,-2.7744,-2.7789,-2.7747,-2.7668,-2.774,-2.7678,-2.7684,-2.7759,-2.7834,-2.7847,-2.786,-2.8011,-2.8042,-2.8069,0,0,0,0,0,0,-2.7981,-2.7907,-2.7852,-2.794,-2.7923,-2.7864,-2.7919,-2.7851,-2.7855,-2.784,-2.7748,-2.774,-2.7818,-2.7795,-2.7728,-2.7875,-2.7774,-2.7788,-2.7887,-2.7916,-2.794,-2.7943,-2.7593,0,0,0,0,0,-2.8027,-2.8055,-2.799,-2.8073,-2.8068,-2.7996,-2.8005,-2.7948,-2.7928,-2.7921,-2.7883,-2.7867,-2.7886,-2.79,-2.7914,-2.8018,-2.8006,-2.8072,-2.8096,-2.8116,-2.8129,-2.8182,-2.8211,-2.7907,-2.7907,-2.7907,0,0,-2.8125,-2.8088,-2.8111,-2.8106,-2.8086,-2.8118,-2.799,-2.803,-2.8053,-2.7927,-2.7985,-2.7958,-2.7934,-2.8019,-2.8055,-2.8002,-2.8211,-2.8132,-2.8149,-2.8151,-2.8198,-2.8227,-2.8252,-2.7916,-2.7914,-2.7913,0,0,-2.8317,-2.8293,-2.8359,-2.8341,-2.8313,-2.8264,-2.828,-2.8232,-2.8208,-2.8265,-2.8171,-2.8198,-2.8232,-2.8219,-2.8217,-2.8406,-2.8333,-2.8413,-2.8538,-2.8591,-2.8614,-2.8635,-2.8701,-2.8726,-2.8427,-2.8427,-2.8427,0,-2.8442,-2.8485,-2.8402,-2.8446,-2.8447,-2.8333,-2.84,-2.8388,-2.8367,-2.837,-2.8311,-2.8351,-2.8328,-2.8408,-2.8454,-2.8456,-2.8472,-2.8417,-2.8617,-2.8637,-2.8656,-2.8718,-2.8743,-2.8437,-2.8436,-2.8435,-2.8434,0,-2.8639,-2.867,-2.8727,-2.8707,-2.8714,-2.877,-2.8697,-2.8714,-2.8658,-2.8616,-2.8676,-2.8644,-2.8648,-2.8663,-2.861,-2.8736,-2.8704,-2.8634,-2.853,-2.8696,-2.8752,-2.8776,-2.8451,-2.8447,-2.8444,-2.8442,0,0,-2.8934,-2.8867,-2.8889,-2.8878,-2.8839,-2.8862,-2.8913,-2.8916,-2.8933,-2.8923,-2.8963,-2.8995,-2.8929,-2.8927,-2.887,-2.8917,-2.9067,-2.884,-2.8838,-2.8882,-2.9204,-2.9257,-2.9286,-2.902,-2.9024,-2.9027,-2.9206,0,-2.9115,-2.9197,-2.9124,-2.922,-2.9247,-2.914,-2.9185,-2.9167,-2.9129,-2.9148,-2.9108,-2.9131,-2.9042,-2.904,-2.9082,-2.904,-2.9131,-2.9027,-2.9057,-2.9059,-2.9064,-2.9315,-2.9371,-2.9541,-2.9228,-2.9231,-2.9234,0,-2.9337,-2.9334,-2.9433,-2.9386,-2.9395,-2.9436,-2.9433,-2.9453,-2.943,-2.9399,-2.9397,-2.9328,-2.9376,-2.9276,-2.9342,-2.9273,-2.9281,-2.9263,-2.9268,-2.9266,-2.9156,-2.932,-2.9593,-2.9618,-2.9268,-2.9266,-2.9263,0,-2.9541,-2.9563,-2.9623,-2.9618,-2.9565,-2.9596,-2.9577,-2.9548,-2.9555,-2.9553,-2.9556,-2.9561,-2.9564,-2.957,-2.9504,-2.9437,-2.9578,-2.9472,-2.9554,-2.9556,-2.9587,-2.9586,-2.9865,-2.9596,-2.9596,-2.9595,-2.9595,0,-2.975,-2.9814,-2.9714,-2.9752,-2.9821,-2.9737,-2.9808,-2.9777,-2.9753,-2.9784,-2.9693,-2.9724,-2.9636,-2.9659,-2.9609,-2.967,-2.9672,-2.965,-2.9635,-2.9657,-2.9659,-2.966,-2.9646,-2.9602,-2.96,-2.9599,-2.9598,0,-2.9988,-2.9924,-2.9983,-2.9928,-2.9916,-2.9969,-2.9923,-2.9956,-2.9913,-2.9953,-2.9957,-2.989,-2.9912,-2.9847,-2.986,-2.9826,-2.9915,-2.9882,-2.9922,-2.9911,-2.9996,-2.9989,-3.0284,-3.0318,-3.003,-3.0033,-3.0035,0,-3.0124,-3.0171,-3.0121,-3.0133,-3.0118,-3.014,-3.0146,-3.0066,-3.0076,-3.0054,-3.009,-3.0104,-3.011,-3.0151,-3.0104,-3.0113,-3.0079,-3.0181,-3.0079,-3.0099,-3.0078,-3.0076,-3.008,-3.0202,-3.0206,-3.0209,-3.0211,0,-3.0373,-3.0339,-3.0349,-3.0349,-3.0358,-3.0355,-3.0345,-3.0362,-3.0276,-3.0293,-3.0312,-3.0318,-3.0329,-3.0344,-3.0343,-3.0324,-3.0254,-3.0244,-3.0263,-3.0284,-3.0305,-3.0294,-2.9978,-3.0237,-3.0234,-3.0232,-3.0231,-3.023,-3.0563,-3.0599,-3.0569,-3.0584,-3.0568,-3.0561,-3.0589,-3.0549,-3.0564,-3.0565,-3.0519,-3.0549,-3.0525,-3.0516,-3.0504,-3.0527,-3.048,-3.0508,-3.0515,-3.0523,-3.0536,-3.0303,-3.0527,-3.0526,-3.0525,-3.0525,-3.0524,0,-3.0806,-3.0781,-3.0795,-3.0784,-3.0796,-3.0728,-3.0714,-3.0729,-3.0756,-3.0739,-3.0747,-3.0771,-3.0785,-3.074,-3.0748,-3.0775,-3.0743,-3.078,-3.0776,-3.0773,-3.0579,-3.0561,-3.0805,-3.0805,-3.0805,-3.0805,-3.0805,-3.0805,-3.0933,-3.099,-3.0952,-3.1001,-3.0976,-3.1002,-3.1,-3.0994,-3.098,-3.1009,-3.102,-3.099,-3.0962,-3.0967,-3.0978,-3.0964,-3.0971,-3.1019,-3.0995,-3.0814,-3.0786,-3.076,-3.0742,-3.1021,-3.1022,-3.1186,-3.1187,-3.1189]},{"header":{"parameterUnit":"m.s-1","parameterCategory":1,"la1":30.2991,"la2":30.254,"lo1":-89.0895,"lo2":-89.0444,"dy":0.0017,"dx":0.0017,"nx":28,"ny":28,"refTime":"2023-08-22T09:00:00:Z","depth":0,"parameterNumber":3,"parameterNumberName":"V-component_of_WINDS"},"data":[0,0,0,0,0,0,0,0,0,0,0,0,0,0,0,0,0,0,0,0,0,0,0,0,0,0,0,0,0,0,0,0,0,0,0,0,0,0,0,0,0,0,0,0,0,0,0,0,0,0,0,0,0,0,0,0,0,0,-0.8866,-0.8867,0,-0.8962,-0.8964,-0.8965,-0.9057,-0.9058,-0.9059,-0.906,-0.9157,-0.9159,-0.916,0,0,0,0,0,0,0,0,0,0,0,0,0,-0.8758,-0.8759,-0.8865,-0.8867,-0.8868,-0.8962,-0.8964,-0.8965,-0.9056,-0.9058,-0.9059,-0.9061,-0.9157,-0.9159,-0.9161,0,0,0,0,0,0,0,0,0,0,0,0,0,-0.8825,-0.876,-0.8865,-0.8925,-0.8931,-0.8962,-0.8964,-0.8965,-0.9056,-0.9058,-0.906,-0.9061,-0.9156,-0.9159,-0.9161,-0.914,0,0,-0.9168,-0.9169,0,0,0,0,0,0,0,0,-0.8821,-0.8828,-0.8915,-0.8921,-0.8928,-0.8999,-0.8962,-0.9024,-0.9056,-0.9009,-0.906,-0.9062,-0.9103,-0.911,-0.9124,-0.9144,-0.9149,-0.9168,-0.9169,-0.917,-0.9171,0,0,0,0,0,0,0,-0.8816,-0.8825,-0.8904,-0.8916,-0.8924,-0.8946,-0.8958,-0.8974,-0.9045,-0.9013,-0.902,-0.903,-0.9107,-0.9122,-0.9127,-0.915,-0.9168,-0.917,-0.9171,-0.9172,-0.9157,-0.9155,0,0,0,0,0,0,-0.8802,-0.882,-0.8901,-0.8907,-0.8878,-0.8947,-0.896,-0.8975,-0.9045,-0.9057,-0.9028,-0.9034,-0.9117,-0.9125,-0.9131,-0.911,-0.917,-0.9172,-0.9174,-0.9158,-0.9156,-0.9154,0,0,0,0,0,0,-0.88,-0.8809,-0.8897,-0.8865,-0.8878,-0.8947,-0.8963,-0.8976,-0.8991,-0.9057,-0.907,-0.9031,-0.9119,-0.9128,-0.9137,-0.9115,-0.9173,-0.9175,-0.916,-0.9158,-0.9155,-0.9069,0,0,0,0,0,0,-0.8796,-0.8807,-0.88,-0.8865,-0.888,-0.8901,-0.8962,-0.8976,-0.8994,-0.9002,-0.9062,-0.9074,-0.9121,-0.9133,-0.9139,-0.9119,-0.9177,-0.9163,-0.9159,-0.9156,-0.9074,-0.9064,-0.9055,0,0,0,0,0,-0.8792,-0.8772,-0.88,-0.8809,-0.8873,-0.89,-0.8909,-0.8964,-0.8992,-0.8986,-0.9028,-0.9072,-0.9116,-0.9133,-0.9141,-0.9121,-0.9164,-0.916,-0.9156,-0.9078,-0.9066,-0.9055,0,0,0,0,0,0,-0.8703,-0.8782,-0.8813,-0.8813,-0.8849,-0.8915,-0.8909,-0.8949,-0.8977,-0.8983,-0.905,-0.9063,-0.9064,-0.9094,-0.9111,-0.9104,-0.9146,-0.9144,-0.9084,-0.9073,-0.9063,-0.9056,-0.9179,0,0,0,0,0,-0.8684,-0.87,-0.8767,-0.8761,-0.8778,-0.884,-0.8854,-0.8893,-0.8933,-0.8948,-0.8992,-0.9028,-0.905,-0.9063,-0.9088,-0.9079,-0.9093,-0.9069,-0.906,-0.9051,-0.9048,-0.9044,-0.9035,-0.9141,-0.9141,-0.9141,0,0,-0.8643,-0.8688,-0.8694,-0.8744,-0.8777,-0.8791,-0.8852,-0.8865,-0.8876,-0.895,-0.8961,-0.8994,-0.9039,-0.9039,-0.9041,-0.9064,-0.9022,-0.9046,-0.9039,-0.904,-0.9039,-0.9029,-0.902,-0.9139,-0.9139,-0.9139,0,0,-0.8577,-0.8613,-0.8612,-0.8643,-0.8691,-0.8733,-0.8732,-0.8792,-0.8817,-0.8829,-0.8885,-0.8899,-0.8936,-0.8965,-0.8985,-0.8929,-0.897,-0.8935,-0.8885,-0.888,-0.8872,-0.8865,-0.8844,-0.8835,-0.8932,-0.8932,-0.8931,0,-0.8521,-0.8545,-0.8605,-0.8615,-0.8635,-0.8703,-0.8701,-0.8728,-0.8782,-0.8793,-0.8819,-0.8866,-0.8901,-0.8908,-0.8894,-0.8909,-0.8909,-0.8928,-0.8868,-0.8862,-0.8856,-0.8837,-0.8829,-0.8927,-0.8927,-0.8928,-0.8928,0,-0.8473,-0.8489,-0.8482,-0.8532,-0.8551,-0.8555,-0.8614,-0.8627,-0.8664,-0.8702,-0.8713,-0.8758,-0.8792,-0.8797,-0.8833,-0.8808,-0.8821,-0.8856,-0.89,-0.884,-0.8823,-0.8816,-0.892,-0.8922,-0.8923,-0.8924,0,0,-0.8354,-0.8437,-0.8433,-0.8456,-0.8514,-0.8527,-0.8534,-0.8567,-0.8576,-0.861,-0.8616,-0.8646,-0.8679,-0.8701,-0.8742,-0.8738,-0.869,-0.8774,-0.8776,-0.8756,-0.8664,-0.8636,-0.8626,-0.8717,-0.8716,-0.8715,-0.8659,0,-0.8297,-0.8312,-0.8366,-0.8365,-0.838,-0.8445,-0.845,-0.8486,-0.8522,-0.8539,-0.8579,-0.8598,-0.8641,-0.8655,-0.8654,-0.8695,-0.8672,-0.87,-0.8723,-0.8723,-0.8708,-0.8618,-0.8589,-0.8534,-0.8653,-0.8652,-0.8651,0,-0.8232,-0.8262,-0.8263,-0.832,-0.8328,-0.8332,-0.8366,-0.8383,-0.8424,-0.845,-0.8475,-0.852,-0.8529,-0.857,-0.8583,-0.8602,-0.8614,-0.8636,-0.8635,-0.8638,-0.8683,-0.8617,-0.8518,-0.8509,-0.8642,-0.8642,-0.8643,0,-0.8144,-0.8184,-0.819,-0.8208,-0.8275,-0.8276,-0.8303,-0.8347,-0.8363,-0.8393,-0.8404,-0.8435,-0.8451,-0.8473,-0.8525,-0.855,-0.8532,-0.8577,-0.8553,-0.8551,-0.8545,-0.8545,-0.8445,-0.8555,-0.8555,-0.8555,-0.8555,0,-0.8074,-0.8071,-0.8151,-0.8154,-0.8153,-0.8214,-0.8211,-0.8245,-0.8283,-0.8293,-0.8351,-0.8359,-0.8428,-0.8444,-0.8484,-0.8488,-0.8495,-0.8516,-0.8527,-0.8511,-0.8508,-0.8519,-0.8524,-0.8553,-0.8553,-0.8554,-0.8554,0,-0.7974,-0.8028,-0.8038,-0.81,-0.8115,-0.8112,-0.8165,-0.817,-0.8209,-0.8221,-0.8228,-0.8289,-0.8311,-0.8365,-0.84,-0.8428,-0.842,-0.8441,-0.8406,-0.8413,-0.8385,-0.8386,-0.8288,-0.8277,-0.8394,-0.8393,-0.8392,0,-0.7926,-0.7925,-0.7987,-0.7998,-0.8024,-0.8041,-0.8058,-0.8118,-0.8134,-0.818,-0.8179,-0.8206,-0.823,-0.8261,-0.8308,-0.8335,-0.8356,-0.832,-0.8361,-0.8344,-0.8354,-0.8353,-0.8353,-0.8311,-0.8309,-0.8308,-0.8307,0,-0.7834,-0.786,-0.7882,-0.7913,-0.7932,-0.796,-0.799,-0.7996,-0.8064,-0.8077,-0.81,-0.8119,-0.8155,-0.818,-0.8215,-0.8243,-0.8285,-0.8294,-0.8289,-0.8272,-0.8251,-0.8261,-0.838,-0.8295,-0.8296,-0.8297,-0.8298,-0.8298,-0.7758,-0.776,-0.7804,-0.7826,-0.7856,-0.7883,-0.789,-0.793,-0.7951,-0.7985,-0.8019,-0.8038,-0.8079,-0.813,-0.8155,-0.817,-0.8192,-0.8186,-0.8184,-0.8181,-0.8173,-0.825,-0.8176,-0.8177,-0.8177,-0.8177,-0.8178,0,-0.7668,-0.7699,-0.7719,-0.776,-0.7777,-0.7817,-0.7852,-0.7864,-0.788,-0.7915,-0.7937,-0.7963,-0.7987,-0.8036,-0.8064,-0.8067,-0.8087,-0.8072,-0.8072,-0.8078,-0.8152,-0.8153,-0.8055,-0.8055,-0.8055,-0.8055,-0.8055,-0.8055,-0.7623,-0.7628,-0.7659,-0.7679,-0.7711,-0.773,-0.7747,-0.7772,-0.7799,-0.7825,-0.7846,-0.7878,-0.7918,-0.7949,-0.7973,-0.7987,-0.7994,-0.7972,-0.7992,-0.8061,-0.8072,-0.8083,-0.8084,-0.7974,-0.7974,-0.7916,-0.7915,-0.7915]}]]